Location: Seattle
(47.6064°N, 122.3308°W)
Time: 21:00:04
(UTC-07:00)

Vanguard 3 - Visible Passes

Search period start: 18 May 2021 00:00
Search period end: 28 May 2021 00:00
Orbit: 507 x 3262 km, 33.4° (Epoch: 18 May)

Date Brightness Start Highest point End Pass type
(mag) Time Alt. Az. Time Alt. Az. Time Alt. Az.
18 May 10.2 21:38:12 10° W 21:55:08 40° SSW 22:06:28 13° SE visible
18 May 10.3 23:57:26 10° W 00:06:47 18° SW 00:10:59 15° SSW visible
19 May 10.2 22:38:12 10° W 22:52:30 29° SW 23:00:47 16° S visible
20 May 10.4 21:20:20 10° W 21:37:25 39° SSW 21:50:26 10° SE visible
20 May 10.5 23:39:57 10° W 23:49:11 17° SW 23:55:07 13° SSW visible
21 May 10.4 22:20:25 10° W 22:34:47 28° SW 22:44:55 13° S visible
22 May 10.6 21:02:36 10° W 21:19:35 38° SSW 21:33:19 10° SSE visible
22 May 10.7 23:22:41 10° W 23:31:29 16° SW 23:38:58 10° SSW visible
23 May 10.6 22:02:47 10° W 22:16:58 26° SW 22:28:34 10° S visible
24 May 10.9 23:05:43 10° WSW 23:13:42 14° SW 23:20:47 10° SSW visible
25 May 10.8 21:45:21 10° W 21:59:05 24° SW 22:10:56 10° S visible
26 May 11.1 22:49:18 10° WSW 22:55:52 13° SW 23:01:55 10° SSW visible
27 May 11.0 21:28:07 10° W 21:41:09 22° SW 21:52:59 10° S visible
